Location: Newark
(45.5000°N, 11.4167°E)
Time: 20:37:50
(UTC+00:00)

Vanguard 3 - Pass Details

Date: 26 August 2019
Orbit: 508 x 3262 km, 33.3° (Epoch: 18 October)

Event Time Altitude Azimuth Distance (km) Brightness Sun altitude
Rises 18:10:57 0° 257° (WSW) 4,097 12.0 -2.0°
Reaches altitude 10° 18:15:03 10° 242° (WSW) 2,660 10.5 -2.7°
Maximum altitude 18:19:10 19° 198° (SSW) 1,693 8.8 -3.4°
Drops below altitude 10° 18:22:19 10° 152° (SSE) 1,964 8.7 -3.9°
Enters shadow 18:24:13 - 136° (SE) 2,510 9.1 -4.2°
Sets 18:24:48 0° 132° (SE) 2,705 - -4.3°
